Location: W�rzburg
(49.7529°N, 9.8822°E)
Time: 08:41:44
(UTC+01:00)

ISS - Visible Passes

Search period start: 17 February 2019 00:00
Search period end: 27 February 2019 00:00
Orbit: 403 x 411 km, 51.6° (Epoch: 17 February)

Date Brightness Start Highest point End Pass type
(mag) Time Alt. Az. Time Alt. Az. Time Alt. Az.
23 Feb -1.0 06:34:09 10° S 06:36:25 18° SE 06:38:42 10° E visible
24 Feb -0.7 05:44:16 10° SSE 05:45:10 11° SE 05:46:04 10° ESE visible
25 Feb -2.2 06:26:42 10° SSW 06:29:40 33° SSE 06:32:40 10° E visible
26 Feb -1.6 05:35:46 10° SSW 05:38:19 21° SE 05:40:53 10° E visible
